Flag for Austria Weather past 2 weeks in Linz, Upper Austria, Austria

Now
39 °F

Thundershowers. Overcast.


Feels Like: 29 °F
Forecast: 32 / 44 °F
Wind: 20 mph from West

Location: Linz / Hoersching-Flughafen

Current Time: Mar 3, 2015 at 1:03:34 AM

Latest Report: Mar 3, 2015 at 12:20 AM


Visibility: N/A

Pressure: 30.01 "Hg

Humidity: 75%

Dew point: 32 °F

Location of LinzLocation

Historic Weather in Linz — Graph

°F

Linz temperature yesterday

Maximum temperature yesterday: 46 °F (at 8:20 AM)
Minimum temperature yesterday: 37 °F (at 12:20 AM)
Average temperature yesterday: 41 °F

Past Weeks' High & Low Weather Summary

 TemperatureHumidityPressure
High52 °F (Feb 16, 3:20 PM)100% (Feb 17, 11:20 PM)30.74 "Hg (Feb 17, 11:20 PM)
Low23 °F (Feb 20, 4:50 AM)46% (Feb 26, 2:50 PM)29.50 "Hg (Feb 21, 4:20 PM)
Average36 °F83%30.02 "Hg
* Reported Feb 15 11:20 PM — Mar 2 11:50 PM, Linz, Weather by CustomWeather, © 2015

Note: Actual official high and low records may vary slightly from our data, if they occured in-between our weather recording intervals... More about our weather records

Advertising

Linz weather history for previous 24 hours

 ConditionsComfort  
Time TempWeatherWind HumidityBarometerVisibility
11:50 PM
Mon, Mar 2
39 °FPartly cloudy.18 mph75%30.01 "HgN/A
11:20 PM37 °FPassing clouds.12 mph87%29.98 "HgN/A
10:50 PM37 °FPassing clouds.14 mph87%29.95 "HgN/A
10:20 PM39 °FRain showers. Passing clouds.17 mph87%29.95 "Hg5 mi
9:50 PM39 °FPartly cloudy.9 mph81%29.92 "HgN/A
9:20 PM39 °FPassing clouds.14 mph81%29.92 "HgN/A
8:50 PM39 °FPassing clouds.10 mph81%29.92 "HgN/A
8:20 PM39 °FPartly cloudy.8 mph81%29.92 "HgN/A
7:50 PM39 °FPartly cloudy.10 mph87%29.92 "HgN/A
7:20 PM37 °FSprinkles. Passing clouds.8 mph93%29.89 "HgN/A
6:50 PM37 °FPartly cloudy.7 mph87%29.89 "HgN/A
6:20 PM37 °FPassing clouds.7 mph87%29.89 "HgN/A
5:50 PM39 °FPartly cloudy.18 mph81%29.86 "HgN/A
5:20 PM41 °FPartly sunny.22 mph76%29.83 "HgN/A
4:50 PM41 °FSprinkles. Partly sunny.20 mph81%29.83 "HgN/A
4:20 PM41 °FPartly sunny.17 mph81%29.83 "HgN/A
3:50 PM41 °FPartly sunny.15 mph81%29.80 "HgN/A
3:20 PM41 °FSprinkles. Broken clouds.17 mph87%29.83 "HgN/A
2:50 PM39 °FSprinkles. Broken clouds.14 mph93%29.80 "HgN/A
2:20 PM41 °FRain showers. Broken clouds.14 mph87%29.77 "HgN/A
1:50 PM43 °FSprinkles. Partly sunny.14 mph87%29.77 "HgN/A
1:20 PM43 °FSprinkles. Broken clouds.16 mph87%29.77 "HgN/A
12:50 PM43 °FSprinkles. Broken clouds.16 mph93%29.77 "HgN/A
12:20 PM43 °FSprinkles. Broken clouds.17 mph87%29.74 "HgN/A
11:50 AM45 °FSprinkles. Broken clouds.24 mph81%29.71 "HgN/A
11:20 AM45 °FRain showers. Partly sunny.23 mph81%29.68 "HgN/A
10:50 AM46 °FRain showers. Partly sunny.13 mph87%29.68 "HgN/A
10:20 AM46 °FSprinkles. Broken clouds.15 mph87%29.65 "HgN/A
9:50 AM46 °FSprinkles. Partly sunny.20 mph87%29.68 "HgN/A
9:20 AM46 °FSprinkles. Broken clouds.21 mph82%29.65 "HgN/A
8:50 AM46 °FBroken clouds.10 mph87%29.65 "HgN/A
8:20 AM46 °FBroken clouds.14 mph87%29.65 "HgN/A
7:50 AM41 °FLight rain. Fog.2 mph100%29.65 "Hg2 mi
7:20 AM41 °FLight rain. Fog.2 mph100%29.65 "Hg1 mi
6:50 AM41 °FLight rain. Fog.7 mph93%29.65 "Hg2 mi
6:20 AM41 °FRain. Fog.3 mph93%29.65 "Hg2 mi
5:50 AM39 °FLight rain. Fog.2 mph100%29.65 "Hg1 mi
5:20 AM39 °FLight rain. Fog.3 mph100%29.65 "Hg1 mi
4:50 AM39 °FRain. Passing clouds.6 mph100%29.68 "Hg1 mi
4:20 AM39 °FLight rain. Fog.5 mph93%29.68 "Hg1 mi
3:50 AM37 °FLight rain. Fog.3 mph100%29.71 "Hg1 mi
3:20 AM37 °FSleet. Overcast.2 mph100%29.74 "Hg1 mi
2:50 AM37 °FSleet. Overcast.2 mph100%29.74 "Hg1 mi
2:20 AM37 °FSleet. Overcast.2 mph100%29.77 "Hg1 mi
1:50 AM37 °FRain. Fog.5 mph100%29.77 "Hg2 mi
1:20 AM37 °FRain. Fog.1 mph100%29.77 "Hg2 mi
Weather by CustomWeather, © 2015

See weather overviewHow to use our weather pages